Stündliche Wetter Bolshie Krugovichi

Heute, 28 November, Samstag

Zeit Temperatur Niederschläge Wind Luftdruck Luftfeuchtigkeit
00:00 +1°C° 0.3 mm 3 m/S 744 mmHg 93%
01:00 +1°C° 0.3 mm 3 m/S 744 mmHg 94%
02:00 0°C° 0 mm 3 m/S 744 mmHg 94%
03:00 +1°C° 0.2 mm 2 m/S 744 mmHg 94%
04:00 -1°C° 0.2 mm 2 m/S 744 mmHg 93%
05:00 -1°C° 0.2 mm 2 m/S 744 mmHg 92%
06:00 -2°C° 0 mm 2 m/S 744 mmHg 92%
07:00 -2°C° 0 mm 2 m/S 744 mmHg 91%
08:00 -2°C° 0 mm 2 m/S 744 mmHg 91%
09:00 -2°C° 0 mm 2 m/S 745 mmHg 88%
10:00 -2°C° 0 mm 2 m/S 745 mmHg 85%
11:00 -1°C° 0 mm 2 m/S 745 mmHg 82%
12:00 -1°C° 0 mm 2 m/S 745 mmHg 80%
13:00 -1°C° 0 mm 2 m/S 745 mmHg 79%
14:00 +2°C° 0 mm 1 m/S 745 mmHg 77%
15:00 +1°C° 0 mm 1 m/S 745 mmHg 81%
16:00 0°C° 0 mm 1 m/S 745 mmHg 85%
17:00 0°C° 0 mm 1 m/S 745 mmHg 89%
18:00 0°C° 0 mm 1 m/S 745 mmHg 89%
19:00 0°C° 0 mm 1 m/S 745 mmHg 88%
20:00 0°C° 0 mm 1 m/S 746 mmHg 87%
21:00 0°C° 0 mm 1 m/S 746 mmHg 88%
22:00 -3°C° 0 mm 2 m/S 746 mmHg 88%
23:00 -3°C° 0 mm 2 m/S 746 mmHg 89%

Morgen, 29 November, Sonntag

Zeit Temperatur Niederschläge Wind Luftdruck Luftfeuchtigkeit
00:00 -2°C° 0.2 mm 2 m/S 746 mmHg 91%
01:00 -2°C° 0.2 mm 2 m/S 746 mmHg 93%
02:00 -2°C° 0.2 mm 3 m/S 746 mmHg 95%
03:00 -1°C° 0.2 mm 3 m/S 746 mmHg 95%
04:00 -1°C° 0.2 mm 3 m/S 746 mmHg 96%
05:00 -1°C° 0.2 mm 3 m/S 746 mmHg 96%
06:00 -1°C° 0.1 mm 2 m/S 746 mmHg 97%
07:00 -1°C° 0.1 mm 2 m/S 746 mmHg 97%
08:00 -1°C° 0.1 mm 2 m/S 746 mmHg 97%
09:00 -1°C° 0.2 mm 2 m/S 746 mmHg 96%
10:00 -1°C° 0.2 mm 2 m/S 746 mmHg 96%
11:00 -1°C° 0.2 mm 2 m/S 746 mmHg 95%
12:00 -1°C° 0.2 mm 2 m/S 746 mmHg 95%
13:00 +1°C° 0.2 mm 1 m/S 746 mmHg 95%
14:00 +1°C° 0.2 mm 1 m/S 746 mmHg 95%
15:00 +1°C° 0.1 mm 1 m/S 746 mmHg 96%
16:00 0°C° 0.1 mm 0 m/S 746 mmHg 97%
17:00 0°C° 0.1 mm 0 m/S 746 mmHg 97%
18:00 0°C° 0.1 mm 0 m/S 747 mmHg 97%
19:00 0°C° 0.1 mm 0 m/S 747 mmHg 97%
20:00 0°C° 0.1 mm 0 m/S 747 mmHg 97%
21:00 0°C° 0.1 mm 1 m/S 747 mmHg 97%
22:00 0°C° 0.1 mm 1 m/S 747 mmHg 97%
23:00 0°C° 0.1 mm 1 m/S 747 mmHg 97%

übermorgen, 30 November, Montag

Zeit Temperatur Niederschläge Wind Luftdruck Luftfeuchtigkeit
00:00 0°C° 0.1 mm 1 m/S 747 mmHg 97%
01:00 0°C° 0.1 mm 1 m/S 748 mmHg 97%
02:00 0°C° 0.1 mm 1 m/S 748 mmHg 97%
03:00 0°C° 0.1 mm 1 m/S 748 mmHg 97%
04:00 -2°C° 0.1 mm 2 m/S 748 mmHg 97%
05:00 -2°C° 0.1 mm 2 m/S 748 mmHg 97%
06:00 -3°C° 0.1 mm 2 m/S 748 mmHg 97%
07:00 -3°C° 0.1 mm 2 m/S 749 mmHg 97%
08:00 -3°C° 0.1 mm 2 m/S 749 mmHg 97%
09:00 -3°C° 0 mm 2 m/S 749 mmHg 95%
10:00 -2°C° 0 mm 2 m/S 750 mmHg 92%
11:00 -2°C° 0 mm 2 m/S 750 mmHg 90%
12:00 -2°C° 0 mm 2 m/S 750 mmHg 88%
13:00 -1°C° 0 mm 2 m/S 750 mmHg 86%
14:00 -1°C° 0 mm 3 m/S 750 mmHg 83%
15:00 -1°C° 0 mm 2 m/S 750 mmHg 86%
16:00 -2°C° 0 mm 2 m/S 751 mmHg 89%
17:00 -2°C° 0 mm 2 m/S 751 mmHg 92%
18:00 -3°C° 0 mm 2 m/S 751 mmHg 93%
19:00 -3°C° 0 mm 2 m/S 751 mmHg 94%
20:00 -4°C° 0 mm 2 m/S 751 mmHg 95%
21:00 -4°C° 0 mm 2 m/S 752 mmHg 95%
22:00 -4°C° 0 mm 2 m/S 752 mmHg 94%
23:00 -4°C° 0 mm 2 m/S 752 mmHg 94%

1 Dezember, Dienstag

Zeit Temperatur Niederschläge Wind Luftdruck Luftfeuchtigkeit
00:00 -4°C° 0 mm 2 m/S 752 mmHg 93%
01:00 -4°C° 0 mm 2 m/S 752 mmHg 92%
02:00 -4°C° 0 mm 2 m/S 752 mmHg 91%
03:00 -4°C° 0 mm 2 m/S 752 mmHg 90%
04:00 -4°C° 0 mm 2 m/S 752 mmHg 89%
05:00 -4°C° 0 mm 2 m/S 752 mmHg 88%
06:00 -1°C° 0 mm 1 m/S 752 mmHg 86%
07:00 -1°C° 0 mm 1 m/S 753 mmHg 83%
08:00 -1°C° 0 mm 1 m/S 753 mmHg 81%
09:00 -2°C° 0 mm 2 m/S 753 mmHg 78%
10:00 -2°C° 0 mm 2 m/S 753 mmHg 75%
11:00 -2°C° 0 mm 2 m/S 753 mmHg 72%
12:00 -2°C° 0 mm 2 m/S 753 mmHg 72%
13:00 -2°C° 0 mm 2 m/S 753 mmHg 73%
14:00 -2°C° 0 mm 2 m/S 753 mmHg 74%
15:00 -3°C° 0 mm 2 m/S 753 mmHg 78%
16:00 -3°C° 0 mm 2 m/S 753 mmHg 82%
17:00 -4°C° 0 mm 2 m/S 753 mmHg 86%
18:00 -4°C° 0 mm 2 m/S 754 mmHg 87%
19:00 -4°C° 0 mm 2 m/S 754 mmHg 88%
20:00 -4°C° 0 mm 2 m/S 754 mmHg 88%
21:00 -4°C° 0 mm 2 m/S 754 mmHg 88%
22:00 -4°C° 0 mm 2 m/S 754 mmHg 88%
23:00 -4°C° 0 mm 2 m/S 754 mmHg 88%

2 Dezember, Mittwoch

Zeit Temperatur Niederschläge Wind Luftdruck Luftfeuchtigkeit
00:00 -5°C° 0 mm 2 m/S 754 mmHg 88%
01:00 -5°C° 0 mm 2 m/S 754 mmHg 88%
02:00 -5°C° 0 mm 2 m/S 754 mmHg 89%
03:00 -5°C° 0 mm 2 m/S 754 mmHg 89%
04:00 -5°C° 0 mm 2 m/S 754 mmHg 90%
05:00 -5°C° 0 mm 2 m/S 754 mmHg 90%
06:00 -5°C° 0 mm 2 m/S 754 mmHg 90%
07:00 -6°C° 0 mm 2 m/S 754 mmHg 91%
08:00 -6°C° 0 mm 2 m/S 754 mmHg 91%
09:00 -5°C° 0 mm 2 m/S 754 mmHg 89%
10:00 -4°C° 0 mm 2 m/S 754 mmHg 87%
11:00 -4°C° 0 mm 2 m/S 754 mmHg 85%
12:00 -3°C° 0 mm 2 m/S 753 mmHg 86%
13:00 -3°C° 0 mm 2 m/S 753 mmHg 88%
14:00 -3°C° 0 mm 2 m/S 753 mmHg 89%
15:00 -3°C° 0 mm 2 m/S 753 mmHg 91%
16:00 -4°C° 0 mm 2 m/S 753 mmHg 94%
17:00 -5°C° 0 mm 2 m/S 752 mmHg 97%
18:00 -4°C° 0 mm 2 m/S 752 mmHg 97%
19:00 -4°C° 0 mm 2 m/S 752 mmHg 97%
20:00 -4°C° 0 mm 2 m/S 752 mmHg 97%
21:00 -4°C° 0 mm 2 m/S 752 mmHg 97%
22:00 -2°C° 0 mm 1 m/S 753 mmHg 97%
23:00 -2°C° 0 mm 1 m/S 753 mmHg 97%

3 Dezember, Donnerstag

Zeit Temperatur Niederschläge Wind Luftdruck Luftfeuchtigkeit
00:00 -2°C° 0 mm 1 m/S 752 mmHg 97%
01:00 -1°C° 0 mm 1 m/S 752 mmHg 97%
02:00 -1°C° 0 mm 1 m/S 752 mmHg 97%
03:00 -1°C° 0 mm 1 m/S 752 mmHg 97%
04:00 -1°C° 0 mm 1 m/S 752 mmHg 97%
05:00 -1°C° 0 mm 1 m/S 752 mmHg 96%
06:00 -1°C° 0 mm 1 m/S 752 mmHg 96%
07:00 -3°C° 0 mm 2 m/S 752 mmHg 96%
08:00 -3°C° 0 mm 2 m/S 752 mmHg 97%
09:00 -2°C° 0 mm 2 m/S 752 mmHg 95%
10:00 -2°C° 0 mm 3 m/S 752 mmHg 94%
11:00 -1°C° 0 mm 3 m/S 752 mmHg 92%
12:00 -1°C° 0 mm 3 m/S 751 mmHg 91%
13:00 -1°C° 0 mm 3 m/S 751 mmHg 90%
14:00 -1°C° 0 mm 2 m/S 751 mmHg 89%
15:00 -1°C° 0 mm 3 m/S 750 mmHg 91%
16:00 -1°C° 0 mm 3 m/S 750 mmHg 94%
17:00 -2°C° 0 mm 3 m/S 750 mmHg 96%
18:00 -1°C° 0 mm 3 m/S 750 mmHg 96%
19:00 -1°C° 0 mm 3 m/S 750 mmHg 96%
20:00 -1°C° 0 mm 3 m/S 750 mmHg 96%
21:00 -2°C° 0 mm 4 m/S 749 mmHg 96%
22:00 -2°C° 0 mm 4 m/S 749 mmHg 97%
23:00 -2°C° 0 mm 4 m/S 749 mmHg 97%
Mehr zeigen

Wir brauchen deine Erlaubnis

Meteoprog und unser Service Anbieter werden persönliche Daten aufbewahren, so wie Cookies, Geräte Bezeichnung oder ähnliche Technologien von deinem Gerät und Prozess, so wie Persönliche Daten Inhalte und Werbungen, genauso wie social Media und den Verkehr zu analysieren.

  • Aufbewahrung und/oder Zugang zu deiner Geräte Informationen.

    Cookies, Geräte Bezeichnung oder andere Informationen, können aufbewahrt oder Zugang zu deinem Gerät erhalten, für den Grund, der oben angegeben wird.

  • Personalisierte Werbung und Inhalte, Messungen, Einblick in das Publikum und Produkt Entwicklung.

    Werbungen und Inhalte können personalisiert werden, basierend auf ein Profil. Mehr Daten können besser personalisierte Werbungen und Inhalte hinzufügen. Werbung und Inhalte können gezeigt und gemessen werden. Einblicke über das Publikum, welche die Werbung gesehen haben und den Inhalt, können abgeleitet werden. So wie Daten können genutzt werden, um es zu verbessern oder die Benutzer Erfahrung zu verbessern das System und die Software.

Wenn du “Ich stimme zu” klickst, erlaubst du uns, die Cookies zu benutzen die Geräte Bezeichnung, den Web oder ähnliche Technologien zu benutzen. Deine Settings, können in deinem Gerät bei deinem Browser geändert werden.

Für den bestimmten Zweck, berechtigten Interessen beruhen darauf, mehr als auf den Inhalt. Du kannst mehr darüber in unseren Privaten und Cookie Politik lesen.